Des Moines International Airport
Sunday 2:54 PM
Temperature68° (68°/58°)
Dew Point52°
Relative Humidity57
%
Visibility10
mi
Pressure1023.7
mb
Wind DirectionS
170°
Wind Speed12
mph
Precipitation TodayTrace

Last 30 Observations

Time PresWx Temp DP Feels RH% Vsby Pressure Ceiling Direction Speed 1h Precip
2:54 PM 68° 52° 57
%
10
mi
1023.7
mb
7,500
ft
S
170°
11
mph
0.00"
1:54 PM 68° 52° 57
%
10
mi
1024.7
mb
9,000
ft
S
170°
8
mph
0.00"
12:54 PM 68° 52° 57
%
10
mi
1025.4
mb
9,000
ft
SSE
160°
9
mph
0.00"
11:54 AM 66° 51° 59
%
10
mi
1025.7
mb
7,000
ft
SE
140°
10
mph
0.00"
10:54 AM 65° 49° 56
%
10
mi
1025.7
mb
7,000
ft
SE
130°
8
mph
0.00"
9:54 AM 64° 50° 60
%
10
mi
1026.1
mb
7,000
ft
SSE
150°
8
mph
0.00"
8:54 AM 61° 50° 67
%
10
mi
1026.1
mb
7,000
ft
SE
130°
7
mph
0.00"
7:54 AM 61° 50° 67
%
10
mi
1026.1
mb
7,000
ft
ESE
120°
8
mph
0.00"
6:54 AM 61° 54° 78
%
10
mi
1025.1
mb
7,000
ft
SE
130°
9
mph
0.00"
5:54 AM 61° 53° 75
%
10
mi
1024.4
mb
25,000
ft
E
100°
7
mph
0.00"
4:54 AM 59° 54° 83
%
10
mi
1024.1
mb
25,000
ft
Calm 0.00"
3:54 AM 61° 54° 78
%
10
mi
1024.4
mb
12,000
ft
Calm 0.00"
2:54 AM 62° 54° 75
%
10
mi
1024.7
mb
9,000
ft
Calm 0.00"
1:54 AM 62° 53° 72
%
10
mi
1024.4
mb
10,000
ft
Calm 0.00"
12:54 AM 62° 53° 72
%
10
mi
1024.4
mb
10,000
ft
Calm 0.00"
11:54 PM 62° 53° 72
%
10
mi
1024.1
mb
11,000
ft
WNW
300°
3
mph
0.00"
10:54 PM 62° 53° 72
%
10
mi
1024.1
mb
W
260°
6
mph
0.00"
9:54 PM 64° 53° 67
%
10
mi
1023.4
mb
14,000
ft
WSW
250°
6
mph
0.00"
8:54 PM 69° 45° 42
%
10
mi
1023.0
mb
14,000
ft
Calm 0.00"
7:54 PM 70° 45° 41
%
10
mi
1023.0
mb
14,000
ft
NNW
340°
3
mph
0.00"
6:54 PM 71° 45° 39
%
10
mi
1023.0
mb
16,000
ft
N
350°
5
mph
0.00"
5:54 PM 72° 47° 41
%
10
mi
1023.0
mb
21,000
ft
N
350°
6
mph
0.00"
4:54 PM -RA 71° 47° 42
%
10
mi
1023.4
mb
16,000
ft
N
10°
6
mph
0.00"
3:54 PM 73° 49° 43
%
10
mi
1023.7
mb
25,000
ft
0.00"
2:54 PM 73° 48° 41
%
10
mi
1023.7
mb
25,000
ft
Calm 0.00"
1:54 PM 73° 50° 44
%
10
mi
1024.1
mb
25,000
ft
NNE
20°
13
mph
0.00"
12:54 PM 72° 49° 44
%
10
mi
1024.1
mb
ENE
60°
5
mph
0.00"
11:54 AM 70° 48° 46
%
10
mi
1024.4
mb
25,000
ft
ENE
60°
7
mph
0.00"
10:54 AM 69° 48° 47
%
10
mi
1025.1
mb
21,000
ft
NNE
20°
8
mph
0.00"
9:54 AM 67° 49° 52
%
10
mi
1025.4
mb
NNE
30°
5
mph
0.00"